Zurück zum Katalog

STARLINK-37607

AktivKommunikationVLEO
NORAD 69514·PAYLOAD·🇺🇸 United States

Gestartet Jun 12, 2026 von Cape Canaveral Space Force Station

Loading…

Nächste Überflüge (nächste 24 Stunden)

TLE

AktuellSource: CelesTrak SupGP

Epoche: Sep 15, 2026, 03:52 UTC

1 69514C 26133G   26258.16159722 -.00049974  00000+0 -14764-2 0  2582
2 69514  53.1563 254.7953 0001339  89.8549 236.2551 15.34417911    15

Verfolge STARLINK-37607 in Echtzeit mit AllMySat

Download on the App Store